Regional Weather Roundup
Issued by NWS

Home | Current Version | Previous Version | Graphics & Text | Print | Product List | Glossary On
Versions: 1 2 3 4 5 6 7 8 9 10 11 12 13 14 15 16 17 18 19 20 21 22 23 24 25 26 27 28 29 30 31 32 33 34 35 36 37 38 39 40 41 42 43 44 45 46 47 48 49 50
000
ASUS43 KOAX 011902
RWRNE

WEATHER ROUNDUP FOR NEBRASKA
NATIONAL WEATHER SERVICE OMAHA NE
100 PM CST SUN FEB 01 2015

NOTES: SATELLITE DATA IS BEING USED TO AUGMENT CLOUD COVER ABOVE
       12000 FEET.
       "FAIR" INDICATES FEW OR NO CLOUDS BELOW 12,000 FEET WITH NO
       SIGNIFICANT WEATHER AND/OR OBSTRUCTIONS TO VISIBILITY.

  * THESE STATIONS DO NOT REPORT WEATHER SUCH AS RAIN...SNOW OR FOG.

NEZ001>004-019>022-054>056-012000-
NEBRASKA PANHANDLE

CITY           SKY/WX    TMP DP  RH WIND       PRES   REMARKS
SCOTTSBLUFF    PTSUNNY   19   8  62 N22       30.26F WCI   2
ALLIANCE       PTSUNNY    8   1  73 N15       30.26F WCI  -9
CHADRON        PTSUNNY    9   2  73 NE3       30.35F
SIDNEY         FLURRIES  15   9  76 N21G28    30.23S WCI  -2
$$

NEZ057>060-069>072-079>082-012000-
SOUTHWEST NEBRASKA

CITY           SKY/WX    TMP DP  RH WIND       PRES   REMARKS
NORTH PLATTE   PTSUNNY   10   1  67 N24G37    30.27R WCI -10
IMPERIAL       MOSUNNY   13   4  67 N29G35    30.26F WCI  -8
MCCOOK         PTSUNNY   16   6  65 NW24      30.27S WCI  -2
$$

NEZ005>010-023>029-035>040-094-012000-
NORTH CENTRAL NEBRASKA

CITY           SKY/WX    TMP DP  RH WIND       PRES   REMARKS
VALENTINE      MIX PCPN   4  -4  69 N16G26    30.34S WCI -15
BROKEN BOW     LGT SNOW   8   1  73 N30G37    30.23S WCI -15
ORD            LGT SNOW   6  -1  73 N24G32    30.24S VSB 1   WCI -16
$$

NEZ041-046>049-061>064-073>077-083>087-012000-
SOUTH CENTRAL NEBRASKA

CITY           SKY/WX    TMP DP  RH WIND       PRES   REMARKS
GRAND ISLAND   LGT SNOW   8   2  76 N32G38    30.21R VSB 3/4 WCI -16
HASTINGS       HVY SNOW  10   5  80 N31       30.18R VSB 1/4 WCI -13
KEARNEY *      CLOUDY     9   3  78 N31       30.20S VSB 1   WCI -14
$$

NEZ011>018-030>034-042>045-012000-
NORTHEAST NEBRASKA

CITY           SKY/WX    TMP DP  RH WIND       PRES   REMARKS
NORFOLK        LGT SNOW   5  -1  76 N28G40    30.20S VSB 3/4 WCI -18
TEKAMAH        HAZE      15  10  80 N30G38    30.13R VSB 1/2 WCI  -5
$$

NEZ050>053-065>068-078-088>093-012000-
SOUTHEAST NEBRASKA

CITY           SKY/WX    TMP DP  RH WIND       PRES   REMARKS
LINCOLN        CLOUDY    13   7  77 N29G40    30.13R BLWGSNOWWCI  -8
OMAHA EPPLEY   SNOW      17  13  84 N29G41    30.06R VSB 1/2 WCI  -2
FALLS CITY     LGT SNOW  22  17  81 NW17G33   29.97R VSB 1   WCI   8
$$

NEZ044-045-051>053-067-012000-
OMAHA AREA

CITY           SKY/WX    TMP DP  RH WIND       PRES   REMARKS
OMAHA EPPLEY   SNOW      17  13  84 N29G41    30.06R VSB 1/2 WCI  -2
OFFUTT AFB     LGT SNOW  18  13  82 NW16G26   30.05R VSB 1   WCI   3
$$



USA.gov is the U.S. government's official web portal to all federal, state and local government web resources and services.